BEIDOU-3 M10 (C24)

Last updated on Mon Feb 13 2023 00:03:21 GMT+0000 (Coordinated Universal Time)

1 43582U 18062B 23042.96862554 .00000103 00000+0 00000+0 0 9997 2 43582 54.2165 223.8797 0006958 32.4383 348.4409 1.86229617 30890

Satellite not in orbit

BEIDOU-3 M10 (C24)